This demonstration page uses our WeatherBlox Daily Observations layout. Learn more.

Left ArrowRight Arrow

39.12711, -84.51439

Hourly Observations for September 5, 2022

Temp ( °F °C ) Dew Point ( °F °C ) Humidity (%) Winds ( mph kmh ) Pressure ( in mb ) Visibility ( mi km ) Precip ( " mm )
12:53 am 00:53 Mostly Cloudy 71 21.7 71 21.7 100 100 Calm 29.98 1015 7 11 0.00 0.00
1:53 am 01:53 Cloudy 73 22.8 71 21.7 94 94 VRB 3 6 29.98 1015 9 14 0.00 0.00
2:30 am 02:30 Cloudy with Rain 73 22.8 71 21.7 94 94 SSE 8 13 29.96 1015 2 3 0.12 3.05
2:45 am 02:45 Cloudy with Light Rain 73 22.8 71 21.7 94 94 Calm 29.95 1014 3 5 0.27 6.86
2:53 am 02:53 Cloudy 73 22.8 71 21.7 94 94 Calm 29.95 1014 10 16 0.27 6.86
3:30 am 03:30 Cloudy 73 22.8 71 21.7 94 94 W 3 6 29.95 1014 10 16 0.00 0.00
3:53 am 03:53 Cloudy 73 22.8 71 21.7 94 94 W 3 6 29.96 1015 10 16 0.00 0.00
4:01 am 04:01 Cloudy with Light Rain 73 22.8 71 21.7 94 94 SSW 6 9 29.96 1015 2 3 0.06 1.52
4:09 am 04:09 Cloudy with Heavy Rain 71 21.7 71 21.7 100 100 Calm 29.96 1015 1 1 0.34 8.64
4:18 am 04:18 Cloudy with Heavy Rain 70 21.1 70 21.1 100 100 NNW 3 6 29.97 1015 1 1 0.48 12.19
4:25 am 04:25 Cloudy with Heavy Rain 71 21.7 70 21.1 96 96 Calm 29.96 1015 1 2 0.53 13.46
4:33 am 04:33 Cloudy with Rain 71 21.7 70 21.1 96 96 Calm 29.96 1015 2 3 0.55 13.97
4:43 am 04:43 Cloudy with Light Rain 71 21.7 71 21.7 100 100 Calm 29.96 1015 3 5 0.56 14.22
4:53 am 04:53 Cloudy with Heavy Rain 71 21.7 70 21.1 96 96 NNW 5 7 29.97 1015 1 1 0.73 18.54
5:22 am 05:22 Cloudy with Rain 70 21.1 70 21.1 100 100 NNE 7 11 29.98 1015 2 3 0.63 16.00
5:31 am 05:31 Cloudy with Heavy Rain 70 21.1 70 21.1 100 100 ENE 8 13 29.98 1015 2 3 0.68 17.27
5:41 am 05:41 Cloudy with Heavy Rain 70 21.1 70 21.1 100 100 NE 8 13 29.98 1015 2 3 0.72 18.29
5:47 am 05:47 Cloudy with Light Rain 70 21 70 21 100 100 NNE 5 7 29.98 1015 3 5 0.72 18.29
5:53 am 05:53 Cloudy with Light Rain 70 21.1 69 20.6 97 97 NE 7 11 29.98 1015 10 16 0.72 18.29
6:10 am 06:10 Cloudy with Heavy Rain 69 20.6 69 20.6 100 100 ENE 6 9 29.99 1015 2 3 0.09 2.29
6:19 am 06:19 Cloudy with Light Rain 69 20.6 69 20.6 100 100 ENE 6 9 29.99 1015 2 3 0.12 3.05
6:27 am 06:27 Cloudy with Light Rain 69 20.6 69 20.6 100 100 NE 3 6 29.99 1015 5 8 0.12 3.05
6:40 am 06:40 Cloudy with Heavy Rain 69 20.6 69 20.6 100 100 ENE 7 11 29.99 1015 2 3 0.20 5.08
6:53 am 06:53 Cloudy with Rain 69 20.6 68 20 96 96 ENE 7 11 29.99 1016 3 5 0.27 6.86
7:15 am 07:15 Cloudy with Light Rain 68 20 67 19.4 96 96 NE 5 7 30.00 1016 3 5 0.04 1.02
7:53 am 07:53 Mostly Cloudy with Mist and Fog 68 20 68 20 100 100 Calm 30.00 1016 5 8 0.04 1.02
8:53 am 08:53 Cloudy with Mist and Fog 69 20.6 68 20 96 96 Calm 30.01 1016 6 10 0.00 0.00
9:12 am 09:12 Cloudy 70 21.1 69 20.6 97 97 NNE 3 6 30.01 1016 10 16 0.00 0.00
9:43 am 09:43 Mostly Cloudy 70 21.1 69 20.6 97 97 SE 3 6 30.01 1016 10 16 0.00 0.00
9:53 am 09:53 Mostly Cloudy with Mist and Fog 70 21.1 69 20.6 97 97 Calm 30.01 1016 6 10 0.00 0.00
10:19 am 10:19 Mostly Cloudy with Mist and Fog 73 22.8 71 21.7 94 94 Calm 30.00 1016 6 10 0.00 0.00
10:53 am 10:53 Cloudy 74 23.3 71 21.7 91 91 Calm 30.01 1016 7 11 0.00 0.00
11:53 am 11:53 Cloudy with Mist and Fog 75 23.9 71 21.7 88 88 N 6 9 30.02 1017 6 10 0.00 0.00
12:53 pm 12:53 Cloudy 76 24.4 70 21.1 82 82 NE 6 9 30.01 1016 8 13 0.00 0.00
1:53 pm 13:53 Cloudy 77 25 71 21.7 82 82 ESE 3 6 30.00 1016 10 16 0.00 0.00
2:53 pm 14:53 Mostly Cloudy 81 27.2 71 21.7 72 72 Calm 29.97 1015 10 16 0.00 0.00
3:53 pm 15:53 Cloudy 79 26.1 71 21.7 77 77 S 3 6 29.96 1015 10 16 0.00 0.00
4:53 pm 16:53 Sunny 81 27.2 71 21.7 72 72 S 6 9 29.96 1015 10 16 0.00 0.00
5:53 pm 17:53 Mostly Cloudy 79 26.1 71 21.7 77 77 SW 5 7 29.96 1014 10 16 0.00 0.00
6:53 pm 18:53 Partly Cloudy 77 25 73 22.8 88 88 Calm 29.95 1014 10 16 0.00 0.00
7:53 pm 19:53 Mostly Cloudy 75 23.9 73 22.8 94 94 S 3 6 29.97 1015 10 16 0.00 0.00
8:53 pm 20:53 Mostly Cloudy 73 22.8 71 21.7 94 94 Calm 29.98 1015 10 16 0.00 0.00
9:53 pm 21:53 Partly Cloudy 71 21.7 71 21.7 100 100 NE 3 6 30.00 1016 10 16 0.00 0.00
10:12 pm 22:12 Mostly Cloudy 72 22.2 71 21.7 97 97 NNE 3 6 29.99 1016 10 16 0.00 0.00
10:41 pm 22:41 Partly Cloudy 71 21.7 71 21.7 100 100 Calm 29.99 1016 10 16 0.00 0.00
10:53 pm 22:53 Mostly Clear 70 21.1 69 20.6 97 97 Calm 30.00 1016 9 14 0.00 0.00
11:53 pm 23:53 Mostly Clear with Mist and Fog 70 21.1 69 20.6 97 97 Calm 30.00 1016 6 10 0.00 0.00

Powered by AerisWeather